Home > Weather > Pasadena > Past weeks

Flag for USA Past Weather in Pasadena, California, USA — Yesterday and Last 2 Weeks

Now
69 °F

Clear.


Feels Like: 69 °F
Forecast: 66 / 93 °F
Wind: No wind

Location: Bob Hope Airport

Current Time: Jun 27, 2016 at 2:34:36 AM

Latest Report: Jun 27, 2016 at 1:53 AM


Visibility: 10 mi

Pressure: 29.85 "Hg

Humidity: 79%

Dew Point: 62 °F

Location of PasadenaLocation

Past Weather in Pasadena — Graph

°F

Pasadena Temperature Yesterday

Maximum temperature yesterday: 93 °F (at 1:53 PM)
Minimum temperature yesterday: 64 °F (at 5:53 AM)
Average temperature yesterday: 76 °F

High & Low Weather Summary for the Past Weeks

 TemperatureHumidityPressure
High111 °F (Jun 20, 4:53 PM)90% (Jun 14, 6:53 AM)30.09 "Hg (Jun 14, 6:53 AM)
Low56 °F (Jun 16, 5:53 AM)2% (Jun 19, 12:53 PM)29.78 "Hg (Jun 20, 4:53 PM)
Average74 °F54%29.91 "Hg
* Reported Jun 12 12:53 AM — Jun 27 12:53 AM, Pasadena, Weather by CustomWeather, © 2016

Note: Actual official high and low records may vary slightly from our data, if they occured in-between our weather recording intervals... More about our weather records

Advertising

Pasadena Weather History for the Previous 24 Hours

Scroll right to see more
 ConditionsComfort  
Time TempWeatherWind HumidityBarometerVisibility
12:53 AM
Mon, Jun 27
68 °FClear.No wind82%29.86 "Hg9 mi
11:53 PM
Sun, Jun 26
69 °FClear.10 mph79%29.87 "Hg10 mi
10:53 PM70 °FClear.8 mph76%29.87 "Hg10 mi
9:53 PM72 °FClear.7 mph71%29.87 "Hg10 mi
8:53 PM72 °FSunny.6 mph71%29.86 "Hg10 mi
7:53 PM76 °FSunny.10 mph60%29.85 "Hg10 mi
6:53 PM78 °FSunny.10 mph56%29.83 "Hg10 mi
5:53 PM84 °FSunny.14 mph46%29.81 "Hg10 mi
4:53 PM87 °FSunny.10 mph40%29.81 "Hg10 mi
3:53 PM89 °FSunny.12 mph39%29.81 "Hg10 mi
2:53 PM93 °FSunny.12 mph36%29.82 "Hg10 mi
1:53 PM93 °FSunny.10 mph36%29.83 "Hg10 mi
12:53 PM92 °FSunny.12 mph37%29.84 "Hg10 mi
11:53 AM88 °FSunny.9 mph40%29.85 "Hg10 mi
10:53 AM85 °FSunny.6 mph43%29.85 "Hg10 mi
9:53 AM80 °FSunny.3 mph51%29.85 "Hg10 mi
8:53 AM74 °FSunny.6 mph62%29.85 "Hg8 mi
7:53 AM69 °FSunny.6 mph70%29.85 "Hg8 mi
6:53 AM65 °FSunny.3 mph85%29.85 "Hg7 mi
5:53 AM64 °FClear.3 mph81%29.82 "Hg8 mi
4:53 AM65 °FClear.3 mph85%29.81 "Hg9 mi
3:53 AM66 °FClear.No wind81%29.83 "Hg9 mi
2:53 AM66 °FClear.No wind81%29.83 "Hg9 mi
Weather by CustomWeather, © 2016

See weather overviewHow to use our weather pages